{"data":{"norad_id":65119,"intl_designator":"2025-170A","name":"GEESAT-4 01","alt_names":[],"object_type":"PAYLOAD","status":"ACTIVE","operator":null,"country":"PRC","launch_date":"2025-08-08","launch_site_code":"YSLA","launch_vehicle":null,"mission":null,"orbit_class":"UNKNOWN","rcs_meters":null,"size_class":null,"mass_kg":null,"dimensions":null,"purposes":[],"wikipedia_slug":null,"has_3d_model":false,"image_url":null,"decayed_at":null,"tle_current":{"epoch":"2026-09-21T22:03:05.475168Z","epoch_age_seconds":42582,"freshness":"FRESH","line1":"1 65119U 25170A   26264.91881337  .00000973  00000+0  14187-3 0  9999","line2":"2 65119  49.9877  85.7497 0010429  63.6324 296.5684 14.84273648 60809","mean_motion":14.84273648,"eccentricity":0.0010429,"inclination_deg":49.9877,"raan_deg":85.7497,"arg_perigee_deg":63.6324,"mean_anomaly_deg":296.5684,"bstar":0.00014187,"rev_number":6080,"period_min":97.017150573302,"perigee_km":608.57263639499,"apogee_km":623.16072927665,"semimajor_km":6994.0036828358,"source":"CELESTRAK","updated_at":"2026-09-22T09:00:30.141528Z"}}}